RH
36 41 43 41 49 53 49 39 35 34 37 34 35 35 33 30 37 42 42 34 33 26 54 81 81 100 89 90 100 100 100 100 100 100 100 100 100 100 100 100 100 100 100
53 56 50 37 36 38 41 44 46 45 42 38 38 38 38 36 32 30 35 41 38 30 30 26 58 77 100 94 43 78 100 100 100 100 100 100 100 100 100 100 100 100 100
57 46 44 41 41 41 41 39 37 36 37 38 39 37 34 39 44 42 34 33 38 42 36 30 28 44 68 93 99 54 79 100 100 100 100 100 100 100 100 100 100 100 100
69 74 82 78 71 71 68 68 68 62 54 47 42 38 37 35 32 30 38 48 39 38 41 43 31 27 34 50 71 97 60 52 79 100 100 100 100 100 100 100 100 100 100
71 78 76 72 67 65 66 64 65 68 69 67 65 68 69 52 40 36 36 38 42 52 42 39 37 36 27 29 46 61 100 54 31 61 84 100 100 100 100 100 100 100 100
68 59 57 53 57 58 60 62 60 59 60 84 90 72 62 62 64 56 45 36 37 46 56 60 51 34 34 33 30 26 64 100 92 44 62 93 100 100 100 100 100 100 100
59 55 60 78 68 62 60 67 70 69 67 67 81 94 98 85 69 56 53 46 40 36 33 50 69 71 47 35 34 29 27 31 63 69 72 75 78 97 100 100 100 100 100
57 54 54 56 71 77 76 80 75 74 70 67 69 73 91 97 96 73 51 43 46 43 36 34 38 58 73 65 42 34 34 30 25 40 64 58 59 62 70 100 100 100 100
58 57 59 54 54 62 64 73 78 77 75 76 71 66 68 66 76 79 71 62 45 46 47 42 32 38 43 62 72 58 36 34 34 29 30 69 79 62 52 74 97 100 100
47 48 51 56 69 73 74 76 76 80 80 81 68 64 67 60 54 60 62 64 58 43 46 48 48 39 37 40 53 64 73 53 38 37 31 31 100 98 62 63 72 100 97
41 45 53 61 60 68 72 75 82 87 80 70 61 57 62 54 65 62 68 54 51 47 35 44 47 49 46 39 40 48 54 63 65 48 39 35 40 100 100 95 58 61 80
56 75 78 78 77 77 80 82 76 70 68 58 59 59 53 52 45 55 56 61 41 26 36 28 33 42 47 47 42 40 43 48 50 57 46 38 36 33 86 100 100 94 60
96 86 88 92 86 77 78 73 64 60 56 52 49 43 39 42 37 31 37 42 41 35 23 29 24 29 39 48 48 44 43 41 45 47 48 41 35 36 36 42 99 100 100
100 99 91 71 70 63 57 46 36 30 23 24 27 25 23 22 21 19 19 22 20 23 24 26 25 24 25 36 47 47 42 38 36 39 44 43 38 33 35 40 38 69 100
98 86 71 63 56 44 28 21 16 15 15 14 14 13 14 13 13 13 13 13 15 15 17 20 21 18 18 18 17 25 34 33 37 33 32 37 39 35 29 34 41 43 44
81 65 64 57 35 18 14 13 12 12 10 10 9 8 8 9 10 10 10 10 11 12 14 18 20 18 18 16 13 15 18 22 32 34 33 31 26 28 33 28 33 39 44
68 61 42 19 14 13 11 10 8 7 6 6 6 6 6 6 6 7 7 8 9 9 11 14 14 16 20 17 15 12 12 15 16 20 28 32 31 32 28 28 27 28 35
42 30 12 13 13 10 8 6 6 6 6 7 7 7 7 6 6 6 7 7 8 8 9 11 12 14 15 16 14 13 12 11 11 11 13 18 26 30 32 34 33 26 26
22 11 12 11 8 6 6 6 6 7 8 8 7 7 7 7 7 7 7 7 7 8 8 10 11 12 13 13 14 14 11 10 10 9 9 9 10 12 16 24 30 34 29
11 11 9 7 6 6 6 6 7 7 7 7 7 7 7 7 7 8 8 8 8 8 9 9 10 11 11 12 13 14 13 11 9 7 7 7 8 9 10 11 15 20 29
10 7 6 6 6 7 7 7 7 7 6 5 5 5 6 7 7 8 8 8 8 9 9 9 10 11 11 11 12 13 13 12 11 10 8 7 6 7 8 8 10 14 18
6 6 6 6 6 5 5 4 4 4 3 3 3 3 4 4 6 7 8 9 9 9 9 9 9 10 11 10 11 11 12 12 13 11 10 9 7 7 7 8 9 11 12
6 6 5 4 3 3 4 4 4 3 3 3 4 4 4 4 4 5 6 7 7 8 8 8 9 10 10 10 11 11 11 11 11 10 10 10 7 8 9 9 9 9 10
5 3 3 3 4 4 4 4 4 3 3 4 5 5 5 5 5 5 4 5 5 5 6 7 7 7 8 8 8 8 8 9 8 7 7 8 7 7 8 9 10 11 11
3 3 4 4 4 4 4 4 4 4 5 5 6 6 5 5 4 5 5 5 5 6 6 5 5 5 5 6 6 6 6 6 6 5 5 5 5 5 5 7 9 10 10
4 4 4 4 4 5 5 5 5 5 5 6 6 6 5 5 6 6 6 6 6 6 7 7 7 6 6 6 6 6 6 6 6 6 5 5 5 5 6 6 5 6 9
Wind_Speed
40 39 38 38 37 38 37 37 37 36 34 32 30 30 30 30 30 29 25 27 37 49 66 67 63 61 67 62 63 62 60 61 62 59 59 62 63 67 66 69 71 70 70
42 41 40 41 40 38 37 37 39 41 41 40 39 39 38 35 35 37 37 35 33 36 50 63 74 67 65 69 68 70 66 62 64 69 67 67 68 65 66 68 69 69 70
46 48 48 47 47 48 49 47 46 45 45 47 48 48 46 45 44 43 43 44 44 43 41 43 66 79 74 70 72 72 75 72 70 67 74 72 72 72 66 68 69 64 66
50 51 51 52 53 54 54 53 52 54 55 57 57 56 55 55 56 55 52 51 51 52 52 50 48 56 78 79 75 76 82 80 78 76 73 77 76 77 72 70 67 67 66
56 57 58 59 59 61 62 60 59 59 61 64 65 65 65 65 64 63 62 64 62 60 60 61 60 57 58 69 85 85 83 85 85 82 83 82 81 82 78 77 74 72 69
61 64 66 69 69 70 69 69 70 70 68 64 65 68 71 72 75 74 73 70 70 71 69 67 68 68 68 66 65 81 89 88 84 90 86 89 87 85 81 77 80 76 75
69 71 69 68 70 72 74 74 74 75 74 78 74 74 77 76 82 83 84 81 79 77 77 77 77 77 76 76 74 74 75 91 96 90 93 94 93 92 91 83 84 82 83
71 70 70 72 76 77 76 83 85 87 86 88 87 87 81 84 87 89 94 92 90 87 86 84 87 86 85 85 83 81 81 78 82 93 93 97 98 98 95 94 90 87 86
72 74 76 81 83 85 87 90 92 95 96 96 100 96 95 91 95 94 93 100 96 94 93 91 89 94 96 95 93 90 87 85 85 82 91 98 101 102 102 101 99 95 90
79 81 85 87 87 89 92 96 96 99 102 101 104 105 101 100 99 99 99 96 102 95 94 98 99 96 99 103 102 101 97 93 90 89 89 94 104 108 107 106 103 104 101
88 91 93 96 99 100 104 106 109 110 110 109 108 105 106 100 102 101 100 103 99 96 92 92 96 99 99 104 107 109 108 105 102 99 95 95 97 108 110 113 108 109 108
98 100 105 107 111 114 117 116 117 112 111 108 107 107 106 107 101 102 99 101 104 94 92 92 91 97 99 103 108 112 114 113 111 108 105 101 99 98 110 113 116 115 112
108 110 113 119 121 121 123 124 117 111 107 106 104 104 105 105 104 100 97 99 100 99 89 90 87 88 94 102 110 113 115 119 119 116 114 110 106 105 104 105 111 117 120
117 121 123 125 126 129 126 119 107 103 100 96 97 97 97 96 95 95 93 93 93 91 89 88 87 88 90 96 103 111 118 119 121 123 122 120 116 112 109 107 107 111 116
125 126 130 131 130 123 113 105 100 96 94 90 90 89 91 91 91 90 89 88 87 87 86 87 87 88 89 93 98 106 115 119 120 122 125 127 125 121 117 113 112 111 113
129 132 132 130 123 110 104 99 94 93 94 92 90 89 88 90 91 93 89 87 85 84 81 84 87 87 87 90 89 94 103 110 114 119 121 125 128 129 126 122 120 118 116
132 131 126 115 108 103 99 97 94 90 86 82 80 79 77 78 81 84 84 85 84 81 78 83 85 86 89 89 89 92 93 95 102 109 117 120 121 125 128 129 128 126 123
124 116 109 105 102 100 99 94 88 82 77 75 73 71 69 67 69 72 75 77 79 78 75 78 82 86 90 91 92 91 92 91 95 98 102 106 114 119 122 126 130 132 131
111 108 104 102 100 96 90 84 78 75 72 69 66 64 62 60 60 61 64 67 70 72 71 72 80 84 87 91 95 95 93 91 91 92 93 95 99 107 112 119 124 128 130
106 103 100 95 91 86 81 78 73 68 64 60 57 54 53 53 53 54 56 59 61 64 66 67 74 81 83 88 92 96 96 93 90 89 88 88 90 91 100 110 115 116 122
102 97 89 84 80 77 74 70 65 61 59 57 54 52 49 49 48 49 51 53 55 58 60 62 68 76 81 83 86 93 94 94 91 90 88 85 83 85 89 98 103 108 113
94 87 81 75 71 67 66 63 62 58 56 54 50 48 46 47 46 47 48 49 51 53 55 55 59 68 74 73 77 83 86 89 89 88 87 85 82 80 83 90 96 99 102
83 79 74 70 66 63 61 58 57 55 51 46 43 42 41 41 43 44 45 47 47 47 49 50 55 60 63 64 67 74 77 80 81 82 81 82 76 76 79 82 87 92 96
75 72 68 65 62 58 54 52 52 50 47 43 40 39 39 40 39 39 40 41 42 43 44 49 53 56 59 60 62 65 68 72 74 75 76 76 76 75 74 76 81 87 92
70 67 65 61 57 54 51 49 47 46 45 40 37 36 38 39 36 35 36 36 35 36 40 43 45 47 49 51 55 58 63 63 66 67 68 68 68 69 70 74 79 84 89
67 64 60 55 50 49 47 45 43 42 39 34 33 36 36 33 31 32 33 32 32 34 36 38 41 43 45 46 49 53 55 57 59 61 64 61 62 62 63 67 73 78 84
Wind_Direction
313 312 311 310 308 307 307 305 302 300 298 296 293 290 287 282 280 277 272 259 248 241 236 231 233 231 234 232 232 234 225 223 223 226 229 230 234 232 233 229 228 229 234
309 305 303 302 299 298 297 296 294 293 293 292 290 287 285 281 277 273 269 264 256 254 244 240 239 239 229 231 235 232 226 229 229 228 230 231 232 231 228 230 230 233 235
301 301 301 303 302 302 299 295 292 289 287 285 283 280 277 277 276 272 268 265 260 256 252 249 239 240 242 237 232 235 232 231 233 232 232 231 232 231 230 231 233 235 233
301 300 300 299 300 299 298 296 295 293 290 287 284 280 278 277 275 272 267 262 259 254 253 251 247 244 239 240 238 238 235 234 237 234 232 233 232 233 231 231 233 232 234
302 300 298 296 295 294 293 291 290 289 287 285 284 281 277 274 273 272 269 267 259 254 253 252 252 249 245 242 238 237 234 235 235 237 236 233 234 232 233 232 231 231 232
296 296 297 297 296 296 297 294 291 289 286 287 287 282 277 276 274 272 271 264 258 258 252 250 251 249 247 245 244 240 236 233 236 236 236 235 233 232 234 234 232 232 232
298 298 297 294 296 296 295 294 291 290 287 286 285 285 286 288 280 274 270 267 262 257 253 251 247 247 248 247 243 242 242 238 236 235 237 235 235 234 234 233 233 233 235
299 296 295 295 297 297 294 294 293 293 292 288 287 284 281 283 286 281 275 271 266 262 258 253 248 246 244 245 245 243 240 240 240 236 234 234 235 236 236 233 233 234 234
298 297 296 297 296 295 294 294 293 293 291 289 287 284 283 281 279 280 273 270 267 263 261 257 251 246 244 243 242 243 243 240 239 239 236 233 234 235 235 235 234 231 232
300 300 301 302 302 301 299 295 293 293 290 287 284 282 280 279 278 276 273 267 266 263 258 256 254 249 243 241 241 240 240 241 240 239 237 234 232 233 235 234 234 232 232
301 303 303 302 302 301 300 301 297 292 290 288 283 281 280 276 278 276 274 269 265 265 261 255 252 250 245 241 238 239 239 239 238 238 237 236 233 231 232 235 235 235 235
305 304 303 302 300 300 299 300 297 292 288 285 282 280 279 278 275 274 272 269 268 264 262 259 251 248 245 241 240 237 237 237 239 238 237 235 235 234 232 231 233 235 235
302 302 302 302 299 299 299 298 294 289 285 283 280 278 276 276 275 272 269 267 266 267 263 259 254 247 243 241 240 238 237 236 235 236 237 236 234 233 234 234 230 231 234
302 302 300 300 300 300 298 295 290 286 284 281 278 276 275 274 273 271 270 268 266 264 263 260 255 251 245 240 239 239 239 237 234 233 234 235 234 233 233 233 234 232 230
303 301 303 302 301 299 296 294 291 288 285 282 279 277 274 272 270 268 266 265 263 262 261 260 257 254 250 245 240 239 239 238 237 236 233 233 234 233 233 232 233 234 233
304 304 304 303 302 300 297 295 292 289 287 284 282 279 274 271 269 267 266 264 261 260 257 256 255 254 250 249 246 241 240 239 238 239 238 236 235 234 233 232 232 233 233
305 305 303 302 301 299 296 294 293 291 288 285 282 279 274 270 266 264 262 261 260 258 254 252 251 250 250 249 247 244 242 240 238 238 239 239 238 237 236 235 233 232 233
304 303 301 301 299 297 297 297 295 293 291 288 284 280 276 272 267 264 261 258 257 255 252 249 249 248 248 250 250 248 246 244 242 238 237 237 238 238 238 237 236 234 232
304 304 303 301 299 299 298 297 295 294 291 287 283 280 276 273 269 265 261 258 256 255 251 247 247 246 246 248 248 249 249 248 246 244 239 237 237 238 237 238 237 236 235
304 302 301 301 300 300 299 298 297 293 289 287 284 282 278 274 270 265 261 258 255 253 251 247 246 246 245 245 247 249 250 250 250 249 247 243 240 239 238 237 237 237 236
303 302 302 301 300 300 299 298 295 292 289 286 284 282 279 275 271 267 262 258 255 253 251 248 246 246 245 243 244 246 248 251 251 252 252 249 243 241 238 236 235 236 236
304 304 304 302 302 300 297 295 293 290 287 286 284 282 278 274 270 265 262 258 255 253 253 250 248 247 248 246 246 246 247 249 250 251 252 251 248 242 239 237 235 234 235
305 305 304 304 302 301 298 296 293 291 290 290 291 289 283 276 270 266 262 259 257 254 252 251 249 249 250 248 248 248 247 248 248 250 250 251 250 247 243 238 236 235 234
306 305 306 305 303 300 297 294 292 293 295 296 293 287 281 275 271 267 264 262 259 257 254 250 248 248 248 249 248 248 249 248 248 248 249 248 248 246 243 241 238 237 236
309 308 307 306 305 301 297 295 295 295 295 295 290 282 275 273 273 271 266 262 260 256 253 253 251 249 248 247 248 248 248 248 248 247 247 245 244 242 240 237 236 235 234
310 309 310 310 306 302 301 299 297 296 295 292 284 277 274 274 270 266 263 260 256 253 253 253 254 254 253 249 247 247 247 246 247 247 246 244 242 240 236 233 231 230 231